Location: Unspecified
(0.0000°N, 0.0000°E)
Time: 16:50:31
(UTC+00:00)

Explorer 7 - Visible Passes

Search period start: 27 June 2016 00:00
Search period end: 07 July 2016 00:00
Orbit: 487 x 687 km, 50.3° (Epoch: 27 June)

Date Brightness Start Highest point End Pass type
(mag) Time Alt. Az. Time Alt. Az. Time Alt. Az.
29 Jun 9.5 20:08:20 10° N 20:08:31 11° N 20:08:31 11° N visible
30 Jun 9.2 20:14:02 10° NNW 20:15:04 18° NNW 20:15:04 18° NNW visible
01 Jul 9.2 20:20:23 10° NW 20:21:42 20° NW 20:21:42 20° NW visible
02 Jul 8.6 18:47:53 10° NNE 18:50:11 15° NE 18:51:56 12° E visible
02 Jul 9.5 20:27:23 10° WNW 20:28:23 15° W 20:28:23 15° W visible
03 Jul 7.5 18:53:04 10° NNW 18:56:31 34° NE 18:58:41 19° ESE visible
04 Jul 6.5 18:59:06 10° NW 19:02:52 89° NE 19:05:27 20° SE visible
05 Jul 10.0 05:24:39 10° SE 05:25:53 11° SE 05:27:07 10° ESE visible
05 Jul 7.9 19:05:46 10° WNW 19:09:14 35° SW 19:12:16 13° S visible
06 Jul 9.4 05:28:33 10° S 05:32:21 22° SE 05:36:05 10° ENE visible
06 Jul 9.2 19:13:17 10° W 19:15:40 16° SW 19:18:05 10° SSW visible
